Back to Top

Language: 

My Weather Underground Personal Weather Station Historical Data with Graphs...

Delerius Weather Station Historical Data
Daily Summary for June 12, 2017 Units:  English    Metric   Both
« Previous Day
Next Day »
Daily Weekly Monthly Yearly Custom
  High: Low: Average:
Temperature: 61.9 °F 55.0 °F 57.9 °F
Dew Point: 52.0 °F 49.2 °F 50.5 °F
Humidity: 86 % 65 % 77 %
Wind Speed: 16.0 mph 4.0 mph 10.9 mph
Wind Gust: 28.0 mph - -
Wind:- - West
Pressure: 30.04 in 29.79 in -
Precipitation: 0.00 in    
Historical Graphs
 
 
Tabular Data for June 12, 2017
Time Temperature Dew Point Pressure Wind Wind Speed Wind Gust Humidity Rainfall Rate (Hourly) solar Conditions
00:02 57.0 °F 49.9 °F 29.79 in WSW 14.0 mph 25.0 mph 77 % 0.00 in 0 W/m2
00:07 57.0 °F 49.9 °F 29.79 in WSW 14.0 mph 27.0 mph 77 % 0.00 in 0 W/m2
00:13 56.8 °F 49.7 °F 29.79 in WSW 14.0 mph 27.0 mph 77 % 0.00 in 0 W/m2
00:18 56.8 °F 50.1 °F 29.79 in WSW 13.0 mph 20.0 mph 78 % 0.00 in 0 W/m2
00:23 56.7 °F 49.9 °F 29.79 in WSW 13.0 mph 24.0 mph 78 % 0.00 in 0 W/m2
00:28 56.7 °F 49.9 °F 29.79 in WSW 12.0 mph 24.0 mph 78 % 0.00 in 0 W/m2
00:33 56.5 °F 50.0 °F 29.79 in WSW 12.0 mph 19.0 mph 79 % 0.00 in 0 W/m2
00:38 56.7 °F 49.9 °F 29.79 in WSW 13.0 mph 21.0 mph 78 % 0.00 in 0 W/m2
00:43 56.7 °F 49.9 °F 29.79 in WSW 14.0 mph 24.0 mph 78 % 0.00 in 0 W/m2
00:48 56.7 °F 49.9 °F 29.79 in WSW 14.0 mph 24.0 mph 78 % 0.00 in 0 W/m2
00:53 56.7 °F 49.9 °F 29.79 in WSW 13.0 mph 21.0 mph 78 % 0.00 in 0 W/m2
00:58 56.5 °F 49.7 °F 29.79 in WSW 12.0 mph 21.0 mph 78 % 0.00 in 0 W/m2
01:03 56.5 °F 49.7 °F 29.79 in WSW 12.0 mph 20.0 mph 78 % 0.00 in 0 W/m2
01:08 56.1 °F 49.7 °F 29.79 in WSW 12.0 mph 22.0 mph 79 % 0.00 in 0 W/m2
01:13 56.1 °F 49.7 °F 29.79 in WSW 12.0 mph 22.0 mph 79 % 0.00 in 0 W/m2
01:18 55.9 °F 49.5 °F 29.80 in WSW 12.0 mph 21.0 mph 79 % 0.00 in 0 W/m2
01:23 55.9 °F 49.5 °F 29.80 in WSW 12.0 mph 21.0 mph 79 % 0.00 in 0 W/m2
01:28 55.9 °F 49.5 °F 29.80 in WSW 11.0 mph 18.0 mph 79 % 0.00 in 0 W/m2
01:33 55.8 °F 49.3 °F 29.80 in WSW 10.0 mph 20.0 mph 79 % 0.00 in 0 W/m2
01:38 55.9 °F 49.5 °F 29.80 in WSW 11.0 mph 24.0 mph 79 % 0.00 in 0 W/m2
01:43 55.8 °F 49.7 °F 29.80 in WSW 10.0 mph 24.0 mph 80 % 0.00 in 0 W/m2
01:48 55.9 °F 49.5 °F 29.80 in WSW 10.0 mph 19.0 mph 79 % 0.00 in 0 W/m2
01:53 55.9 °F 49.5 °F 29.80 in WSW 11.0 mph 19.0 mph 79 % 0.00 in 0 W/m2
01:58 56.1 °F 49.7 °F 29.80 in WSW 11.0 mph 19.0 mph 79 % 0.00 in 0 W/m2
02:03 56.1 °F 49.7 °F 29.80 in WSW 11.0 mph 20.0 mph 79 % 0.00 in 0 W/m2
02:08 56.1 °F 49.7 °F 29.80 in WSW 10.0 mph 20.0 mph 79 % 0.00 in 0 W/m2
02:13 56.1 °F 49.7 °F 29.80 in WSW 10.0 mph 18.0 mph 79 % 0.00 in 0 W/m2
02:18 56.3 °F 49.9 °F 29.80 in WSW 11.0 mph 21.0 mph 79 % 0.00 in 0 W/m2
02:23 56.5 °F 50.0 °F 29.80 in WSW 12.0 mph 21.0 mph 79 % 0.00 in 0 W/m2
02:28 56.5 °F 50.0 °F 29.80 in WSW 12.0 mph 20.0 mph 79 % 0.00 in 0 W/m2
02:33 56.3 °F 49.9 °F 29.80 in WSW 12.0 mph 20.0 mph 79 % 0.00 in 0 W/m2
02:34 56.3 °F 49.9 °F 29.80 in WSW 11.0 mph 20.0 mph 79 % 0.00 in 0 W/m2
02:39 56.3 °F 49.9 °F 29.81 in WSW 11.0 mph 19.0 mph 79 % 0.00 in 0 W/m2
02:44 56.3 °F 49.9 °F 29.80 in WSW 11.0 mph 19.0 mph 79 % 0.00 in 0 W/m2
02:49 56.3 °F 49.9 °F 29.80 in WSW 11.0 mph 18.0 mph 79 % 0.00 in 0 W/m2
02:54 56.1 °F 49.7 °F 29.80 in WSW 11.0 mph 20.0 mph 79 % 0.00 in 0 W/m2
02:59 56.1 °F 49.7 °F 29.80 in WSW 11.0 mph 20.0 mph 79 % 0.00 in 0 W/m2
03:04 56.1 °F 49.7 °F 29.80 in WSW 11.0 mph 23.0 mph 79 % 0.00 in 0 W/m2
03:09 56.1 °F 49.7 °F 29.80 in WSW 12.0 mph 23.0 mph 79 % 0.00 in 0 W/m2
03:14 56.1 °F 49.7 °F 29.80 in WSW 12.0 mph 22.0 mph 79 % 0.00 in 0 W/m2
03:19 56.1 °F 49.7 °F 29.80 in WSW 10.0 mph 21.0 mph 79 % 0.00 in 0 W/m2
03:24 56.1 °F 49.7 °F 29.80 in WSW 10.0 mph 21.0 mph 79 % 0.00 in 0 W/m2
03:29 56.3 °F 49.9 °F 29.80 in WSW 11.0 mph 19.0 mph 79 % 0.00 in 0 W/m2
03:34 56.5 °F 50.0 °F 29.80 in WSW 11.0 mph 19.0 mph 79 % 0.00 in 0 W/m2
03:39 56.5 °F 50.0 °F 29.81 in WSW 10.0 mph 16.0 mph 79 % 0.00 in 0 W/m2
03:44 56.5 °F 50.0 °F 29.81 in WSW 9.0 mph 18.0 mph 79 % 0.00 in 0 W/m2
03:49 56.5 °F 50.0 °F 29.81 in WSW 10.0 mph 22.0 mph 79 % 0.00 in 0 W/m2
03:54 56.5 °F 50.0 °F 29.81 in WSW 10.0 mph 22.0 mph 79 % 0.00 in 0 W/m2
04:00 56.5 °F 49.7 °F 29.81 in WSW 10.0 mph 16.0 mph 78 % 0.00 in 0 W/m2
04:05 56.5 °F 49.7 °F 29.81 in WSW 11.0 mph 19.0 mph 78 % 0.00 in 0 W/m2
04:09 56.5 °F 49.7 °F 29.81 in WSW 11.0 mph 19.0 mph 78 % 0.00 in 0 W/m2
04:15 56.5 °F 49.7 °F 29.81 in WSW 12.0 mph 19.0 mph 78 % 0.00 in 0 W/m2
04:20 56.5 °F 50.0 °F 29.81 in WSW 12.0 mph 22.0 mph 79 % 0.00 in 0 W/m2
04:25 56.3 °F 50.2 °F 29.81 in WSW 11.0 mph 22.0 mph 80 % 0.00 in 0 W/m2
04:30 56.1 °F 50.0 °F 29.81 in WSW 10.0 mph 16.0 mph 80 % 0.00 in 0 W/m2
04:35 55.9 °F 49.9 °F 29.81 in WSW 10.0 mph 16.0 mph 80 % 0.00 in 0 W/m2
04:40 55.9 °F 49.9 °F 29.80 in WSW 11.0 mph 19.0 mph 80 % 0.00 in 0 W/m2
04:45 55.9 °F 49.9 °F 29.80 in WSW 12.0 mph 19.0 mph 80 % 0.00 in 0 W/m2
04:50 55.9 °F 49.9 °F 29.80 in WSW 12.0 mph 19.0 mph 80 % 0.00 in 0 W/m2
04:55 55.9 °F 49.9 °F 29.80 in WSW 10.0 mph 19.0 mph 80 % 0.00 in 0 W/m2
05:00 55.9 °F 49.9 °F 29.81 in WSW 10.0 mph 18.0 mph 80 % 0.00 in 0 W/m2
05:05 55.9 °F 49.9 °F 29.81 in WSW 9.0 mph 18.0 mph 80 % 0.00 in 7 W/m2
05:10 55.9 °F 49.9 °F 29.81 in WSW 10.0 mph 21.0 mph 80 % 0.00 in 11 W/m2
05:15 55.9 °F 49.9 °F 29.80 in WSW 11.0 mph 21.0 mph 80 % 0.00 in 18 W/m2
05:20 55.9 °F 50.2 °F 29.81 in West 11.0 mph 21.0 mph 81 % 0.00 in 14 W/m2
05:25 55.8 °F 49.7 °F 29.81 in WSW 11.0 mph 18.0 mph 80 % 0.00 in 7 W/m2
05:30 55.8 °F 50.3 °F 29.81 in WSW 10.0 mph 16.0 mph 82 % 0.00 in 16 W/m2
05:34 55.8 °F 50.3 °F 29.81 in WSW 10.0 mph 16.0 mph 82 % 0.00 in 18 W/m2
05:39 55.6 °F 50.2 °F 29.81 in West 10.0 mph 16.0 mph 82 % 0.00 in 18 W/m2
05:44 55.6 °F 50.5 °F 29.81 in West 10.0 mph 18.0 mph 83 % 0.00 in 26 W/m2
05:49 55.4 °F 50.3 °F 29.81 in West 10.0 mph 18.0 mph 83 % 0.00 in 25 W/m2
05:54 55.4 °F 50.3 °F 29.81 in West 11.0 mph 20.0 mph 83 % 0.00 in 26 W/m2
05:59 55.4 °F 50.3 °F 29.81 in West 11.0 mph 21.0 mph 83 % 0.00 in 30 W/m2
06:04 55.6 °F 50.2 °F 29.81 in West 10.0 mph 21.0 mph 82 % 0.00 in 39 W/m2
06:09 55.6 °F 50.2 °F 29.82 in West 11.0 mph 19.0 mph 82 % 0.00 in 47 W/m2
06:14 55.8 °F 50.3 °F 29.81 in WSW 12.0 mph 20.0 mph 82 % 0.00 in 51 W/m2
06:19 55.8 °F 50.0 °F 29.81 in West 13.0 mph 25.0 mph 81 % 0.00 in 58 W/m2
06:24 55.8 °F 50.0 °F 29.82 in West 12.0 mph 25.0 mph 81 % 0.00 in 33 W/m2
06:29 55.8 °F 50.0 °F 29.82 in West 12.0 mph 22.0 mph 81 % 0.00 in 44 W/m2
06:34 55.9 °F 50.2 °F 29.82 in West 12.0 mph 23.0 mph 81 % 0.00 in 46 W/m2
06:35 55.8 °F 50.0 °F 29.82 in WSW 12.0 mph 23.0 mph 81 % 0.00 in 46 W/m2
06:40 55.9 °F 50.2 °F 29.83 in West 12.0 mph 23.0 mph 81 % 0.00 in 46 W/m2
06:45 55.9 °F 50.2 °F 29.83 in West 12.0 mph 21.0 mph 81 % 0.00 in 40 W/m2
06:50 55.9 °F 50.2 °F 29.83 in West 14.0 mph 24.0 mph 81 % 0.00 in 40 W/m2
06:55 55.8 °F 50.3 °F 29.83 in West 13.0 mph 24.0 mph 82 % 0.00 in 54 W/m2
07:00 55.8 °F 50.3 °F 29.84 in West 13.0 mph 24.0 mph 82 % 0.00 in 70 W/m2
07:05 55.8 °F 50.3 °F 29.84 in West 12.0 mph 23.0 mph 82 % 0.00 in 65 W/m2
07:10 55.6 °F 50.5 °F 29.84 in West 12.0 mph 20.0 mph 83 % 0.00 in 65 W/m2
07:15 55.2 °F 50.8 °F 29.84 in West 11.0 mph 20.0 mph 85 % 0.00 in 93 W/m2
07:20 55.2 °F 51.1 °F 29.84 in West 11.0 mph 18.0 mph 86 % 0.00 in 105 W/m2
07:25 55.0 °F 50.6 °F 29.84 in West 10.0 mph 16.0 mph 85 % 0.00 in 121 W/m2
07:30 55.2 °F 50.8 °F 29.84 in West 11.0 mph 18.0 mph 85 % 0.00 in 98 W/m2
07:35 55.4 °F 50.6 °F 29.85 in West 12.0 mph 21.0 mph 84 % 0.00 in 86 W/m2
07:40 55.6 °F 50.5 °F 29.85 in West 13.0 mph 25.0 mph 83 % 0.00 in 86 W/m2
07:45 55.6 °F 50.2 °F 29.85 in West 13.0 mph 27.0 mph 82 % 0.00 in 53 W/m2
07:47 55.6 °F 50.2 °F 29.85 in West 13.0 mph 27.0 mph 82 % 0.00 in 95 W/m2
07:52 55.6 °F 50.2 °F 29.85 in West 11.0 mph 19.0 mph 82 % 0.00 in 98 W/m2
07:53 55.8 °F 50.7 °F 29.85 in West 11.0 mph 18.0 mph 83 % 0.00 in 104 W/m2
07:58 55.8 °F 50.7 °F 29.85 in West 11.0 mph 20.0 mph 83 % 0.00 in 97 W/m2
08:03 55.8 °F 50.3 °F 29.86 in West 13.0 mph 21.0 mph 82 % 0.00 in 98 W/m2
08:08 55.8 °F 50.3 °F 29.86 in West 14.0 mph 24.0 mph 82 % 0.00 in 93 W/m2
08:13 55.8 °F 50.7 °F 29.86 in WSW 14.0 mph 24.0 mph 83 % 0.00 in 162 W/m2
08:23 55.8 °F 50.7 °F 29.87 in West 13.0 mph 24.0 mph 83 % 0.00 in 86 W/m2
08:28 55.8 °F 51.0 °F 29.87 in West 12.0 mph 24.0 mph 84 % 0.00 in 127 W/m2
08:33 55.8 °F 51.0 °F 29.87 in West 12.0 mph 22.0 mph 84 % 0.00 in 139 W/m2
08:38 55.8 °F 51.0 °F 29.88 in West 14.0 mph 24.0 mph 84 % 0.00 in 142 W/m2
08:43 55.6 °F 51.1 °F 29.88 in WSW 13.0 mph 24.0 mph 85 % 0.00 in 137 W/m2
08:49 55.4 °F 51.0 °F 29.87 in WSW 12.0 mph 22.0 mph 85 % 0.00 in 172 W/m2
08:54 55.6 °F 50.8 °F 29.87 in West 12.0 mph 21.0 mph 84 % 0.00 in 165 W/m2
08:59 55.8 °F 50.7 °F 29.88 in West 13.0 mph 21.0 mph 83 % 0.00 in 176 W/m2
09:04 56.1 °F 50.7 °F 29.88 in West 13.0 mph 25.0 mph 82 % 0.00 in 216 W/m2
09:09 56.5 °F 51.1 °F 29.88 in WSW 13.0 mph 25.0 mph 82 % 0.00 in 188 W/m2
09:14 56.7 °F 50.9 °F 29.88 in West 13.0 mph 22.0 mph 81 % 0.00 in 248 W/m2
09:19 56.8 °F 51.1 °F 29.88 in West 14.0 mph 22.0 mph 81 % 0.00 in 250 W/m2
09:24 57.0 °F 50.9 °F 29.88 in West 13.0 mph 26.0 mph 80 % 0.00 in 223 W/m2
09:29 57.4 °F 51.3 °F 29.88 in West 12.0 mph 26.0 mph 80 % 0.00 in 227 W/m2
09:34 57.4 °F 51.3 °F 29.89 in West 12.0 mph 24.0 mph 80 % 0.00 in 174 W/m2
09:39 57.4 °F 51.3 °F 29.89 in West 13.0 mph 24.0 mph 80 % 0.00 in 243 W/m2
09:44 57.4 °F 51.6 °F 29.89 in West 11.0 mph 21.0 mph 81 % 0.00 in 227 W/m2
09:49 57.6 °F 51.8 °F 29.89 in West 9.0 mph 15.0 mph 81 % 0.00 in 204 W/m2
09:54 57.6 °F 51.8 °F 29.89 in West 9.0 mph 21.0 mph 81 % 0.00 in 195 W/m2
09:59 57.6 °F 51.4 °F 29.89 in West 10.0 mph 21.0 mph 80 % 0.00 in 169 W/m2
10:04 57.6 °F 51.4 °F 29.90 in West 12.0 mph 20.0 mph 80 % 0.00 in 123 W/m2
10:09 57.4 °F 51.6 °F 29.90 in West 13.0 mph 22.0 mph 81 % 0.00 in 86 W/m2
10:14 57.2 °F 51.8 °F 29.90 in West 12.0 mph 22.0 mph 82 % 0.00 in 253 W/m2
10:19 57.4 °F 51.3 °F 29.90 in West 11.0 mph 21.0 mph 80 % 0.00 in 172 W/m2
10:24 57.6 °F 51.1 °F 29.90 in West 11.0 mph 21.0 mph 79 % 0.00 in 244 W/m2
10:29 57.9 °F 51.4 °F 29.91 in West 11.0 mph 18.0 mph 79 % 0.00 in 241 W/m2
10:34 58.3 °F 51.1 °F 29.90 in West 12.0 mph 21.0 mph 77 % 0.00 in 313 W/m2
10:39 58.6 °F 51.1 °F 29.90 in West 13.0 mph 23.0 mph 76 % 0.00 in 244 W/m2
10:44 58.8 °F 50.9 °F 29.90 in West 12.0 mph 23.0 mph 75 % 0.00 in 290 W/m2
10:49 59.0 °F 51.1 °F 29.91 in West 12.0 mph 20.0 mph 75 % 0.00 in 200 W/m2
10:54 58.8 °F 50.5 °F 29.91 in West 14.0 mph 24.0 mph 74 % 0.00 in 165 W/m2
10:59 58.5 °F 51.3 °F 29.92 in West 15.0 mph 24.0 mph 77 % 0.00 in 260 W/m2
11:04 58.3 °F 51.8 °F 29.92 in West 13.0 mph 23.0 mph 79 % 0.00 in 353 W/m2
11:09 58.5 °F 52.0 °F 29.92 in West 12.0 mph 22.0 mph 79 % 0.00 in 223 W/m2
11:14 58.6 °F 51.8 °F 29.92 in West 12.0 mph 22.0 mph 78 % 0.00 in 135 W/m2
11:19 58.5 °F 51.6 °F 29.93 in West 12.0 mph 21.0 mph 78 % 0.00 in 105 W/m2
11:24 58.1 °F 51.3 °F 29.93 in West 11.0 mph 20.0 mph 78 % 0.00 in 130 W/m2
11:29 57.9 °F 51.1 °F 29.93 in West 11.0 mph 20.0 mph 78 % 0.00 in 118 W/m2
11:34 57.9 °F 51.1 °F 29.93 in West 10.0 mph 19.0 mph 78 % 0.00 in 135 W/m2
11:39 58.1 °F 51.3 °F 29.93 in West 9.0 mph 16.0 mph 78 % 0.00 in 128 W/m2
11:49 58.5 °F 50.9 °F 29.93 in West 11.0 mph 19.0 mph 76 % 0.00 in 220 W/m2
11:54 58.6 °F 50.7 °F 29.93 in West 13.0 mph 26.0 mph 75 % 0.00 in 200 W/m2
11:59 58.6 °F 50.7 °F 29.93 in West 13.0 mph 26.0 mph 75 % 0.00 in 137 W/m2
12:05 58.6 °F 50.4 °F 29.93 in West 12.0 mph 23.0 mph 74 % 0.00 in 246 W/m2
12:10 58.8 °F 50.5 °F 29.93 in West 13.0 mph 23.0 mph 74 % 0.00 in 253 W/m2
12:15 59.2 °F 50.5 °F 29.94 in West 13.0 mph 25.0 mph 73 % 0.00 in 388 W/m2
12:20 59.5 °F 50.9 °F 29.93 in West 13.0 mph 25.0 mph 73 % 0.00 in 301 W/m2
12:25 59.9 °F 51.2 °F 29.94 in West 11.0 mph 20.0 mph 73 % 0.00 in 290 W/m2
12:30 60.4 °F 51.0 °F 29.94 in West 10.0 mph 23.0 mph 71 % 0.00 in 492 W/m2
12:35 61.0 °F 50.7 °F 29.94 in West 14.0 mph 25.0 mph 69 % 0.00 in 366 W/m2
12:40 61.0 °F 50.7 °F 29.95 in West 16.0 mph 26.0 mph 69 % 0.00 in 364 W/m2
12:45 61.0 °F 50.3 °F 29.95 in West 14.0 mph 26.0 mph 68 % 0.00 in 260 W/m2
12:50 60.8 °F 50.2 °F 29.95 in West 14.0 mph 24.0 mph 68 % 0.00 in 468 W/m2
12:55 61.2 °F 50.9 °F 29.94 in West 13.0 mph 24.0 mph 69 % 0.00 in 541 W/m2
13:00 61.7 °F 51.4 °F 29.95 in West 12.0 mph 22.0 mph 69 % 0.00 in 318 W/m2
13:05 61.5 °F 50.1 °F 29.95 in West 13.0 mph 28.0 mph 66 % 0.00 in 229 W/m2
13:10 61.2 °F 49.7 °F 29.95 in West 15.0 mph 28.0 mph 66 % 0.00 in 264 W/m2
13:15 61.0 °F 49.9 °F 29.95 in West 15.0 mph 27.0 mph 67 % 0.00 in 483 W/m2
13:20 61.5 °F 50.9 °F 29.95 in West 15.0 mph 24.0 mph 68 % 0.00 in 343 W/m2
13:25 61.7 °F 50.6 °F 29.95 in West 14.0 mph 24.0 mph 67 % 0.00 in 392 W/m2
13:30 61.5 °F 50.1 °F 29.95 in West 14.0 mph 24.0 mph 66 % 0.00 in 378 W/m2
13:35 61.2 °F 49.3 °F 29.95 in West 15.0 mph 25.0 mph 65 % 0.00 in 438 W/m2
13:40 61.3 °F 49.9 °F 29.95 in West 16.0 mph 26.0 mph 66 % 0.00 in 485 W/m2
13:46 61.7 °F 50.2 °F 29.96 in West 15.0 mph 26.0 mph 66 % 0.00 in 533 W/m2
13:51 61.9 °F 50.4 °F 29.96 in West 13.0 mph 25.0 mph 66 % 0.00 in 260 W/m2
13:56 61.5 °F 49.6 °F 29.96 in West 13.0 mph 26.0 mph 65 % 0.00 in 276 W/m2
14:01 61.2 °F 49.7 °F 29.96 in West 15.0 mph 27.0 mph 66 % 0.00 in 197 W/m2
14:06 61.0 °F 49.9 °F 29.96 in West 13.0 mph 27.0 mph 67 % 0.00 in 190 W/m2
14:11 60.6 °F 50.0 °F 29.96 in West 13.0 mph 24.0 mph 68 % 0.00 in 381 W/m2
14:16 60.4 °F 50.2 °F 29.97 in West 13.0 mph 24.0 mph 69 % 0.00 in 304 W/m2
14:21 60.4 °F 49.8 °F 29.97 in West 14.0 mph 28.0 mph 68 % 0.00 in 171 W/m2
14:26 60.3 °F 49.7 °F 29.97 in West 15.0 mph 28.0 mph 68 % 0.00 in 304 W/m2
14:31 60.4 °F 50.2 °F 29.97 in West 13.0 mph 22.0 mph 69 % 0.00 in 304 W/m2
14:36 60.6 °F 50.4 °F 29.97 in West 12.0 mph 21.0 mph 69 % 0.00 in 348 W/m2
14:41 60.6 °F 49.2 °F 29.97 in West 13.0 mph 25.0 mph 66 % 0.00 in 223 W/m2
14:46 60.6 °F 49.6 °F 29.97 in West 15.0 mph 27.0 mph 67 % 0.00 in 269 W/m2
14:51 60.6 °F 50.4 °F 29.98 in West 12.0 mph 27.0 mph 69 % 0.00 in 165 W/m2
14:56 60.4 °F 50.2 °F 29.98 in West 10.0 mph 18.0 mph 69 % 0.00 in 195 W/m2
15:01 60.3 °F 50.4 °F 29.98 in West 12.0 mph 22.0 mph 70 % 0.00 in 257 W/m2
15:06 60.3 °F 50.8 °F 29.98 in West 11.0 mph 22.0 mph 71 % 0.00 in 211 W/m2
15:11 60.4 °F 51.0 °F 29.98 in West 9.0 mph 20.0 mph 71 % 0.00 in 190 W/m2
15:16 60.4 °F 50.2 °F 29.98 in West 11.0 mph 21.0 mph 69 % 0.00 in 251 W/m2
15:21 60.4 °F 49.8 °F 29.98 in West 13.0 mph 21.0 mph 68 % 0.00 in 156 W/m2
15:23 60.3 °F 49.7 °F 29.98 in West 13.0 mph 20.0 mph 68 % 0.00 in 130 W/m2
15:29 60.3 °F 49.7 °F 29.98 in West 13.0 mph 23.0 mph 68 % 0.00 in 174 W/m2
15:33 60.3 °F 50.0 °F 29.99 in West 13.0 mph 23.0 mph 69 % 0.00 in 107 W/m2
15:38 60.1 °F 49.9 °F 29.99 in West 11.0 mph 21.0 mph 69 % 0.00 in 83 W/m2
15:43 59.9 °F 49.7 °F 29.99 in West 11.0 mph 21.0 mph 69 % 0.00 in 95 W/m2
15:49 59.7 °F 49.9 °F 29.98 in West 12.0 mph 21.0 mph 70 % 0.00 in 199 W/m2
15:54 59.7 °F 50.3 °F 29.98 in West 10.0 mph 21.0 mph 71 % 0.00 in 134 W/m2
15:59 59.9 °F 50.1 °F 29.98 in West 10.0 mph 18.0 mph 70 % 0.00 in 185 W/m2
16:04 60.1 °F 50.3 °F 29.98 in West 11.0 mph 19.0 mph 70 % 0.00 in 199 W/m2
16:09 60.3 °F 50.4 °F 29.98 in West 11.0 mph 19.0 mph 70 % 0.00 in 230 W/m2
16:14 60.4 °F 51.0 °F 29.99 in West 10.0 mph 19.0 mph 71 % 0.00 in 218 W/m2
16:19 60.6 °F 50.8 °F 29.99 in West 9.0 mph 19.0 mph 70 % 0.00 in 281 W/m2
16:24 60.6 °F 50.4 °F 29.99 in West 11.0 mph 20.0 mph 69 % 0.00 in 248 W/m2
16:29 60.6 °F 50.4 °F 29.99 in West 13.0 mph 20.0 mph 69 % 0.00 in 167 W/m2
16:39 60.6 °F 50.0 °F 29.99 in West 12.0 mph 21.0 mph 68 % 0.00 in 121 W/m2
16:44 60.4 °F 50.2 °F 29.99 in West 13.0 mph 21.0 mph 69 % 0.00 in 153 W/m2
16:49 60.3 °F 50.0 °F 29.99 in West 12.0 mph 21.0 mph 69 % 0.00 in 127 W/m2
16:54 60.3 °F 50.4 °F 29.99 in West 11.0 mph 20.0 mph 70 % 0.00 in 163 W/m2
16:59 60.3 °F 50.8 °F 29.99 in West 10.0 mph 18.0 mph 71 % 0.00 in 155 W/m2
17:04 60.3 °F 50.8 °F 29.99 in West 11.0 mph 18.0 mph 71 % 0.00 in 185 W/m2
17:09 60.3 °F 50.8 °F 29.99 in West 12.0 mph 25.0 mph 71 % 0.00 in 197 W/m2
17:14 60.3 °F 50.8 °F 29.99 in West 13.0 mph 25.0 mph 71 % 0.00 in 225 W/m2
17:19 60.4 °F 51.0 °F 29.99 in West 12.0 mph 22.0 mph 71 % 0.00 in 225 W/m2
17:24 60.6 °F 50.8 °F 29.99 in West 12.0 mph 21.0 mph 70 % 0.00 in 155 W/m2
17:29 60.6 °F 51.2 °F 29.99 in West 11.0 mph 21.0 mph 71 % 0.00 in 90 W/m2
17:34 60.6 °F 51.2 °F 30.00 in West 9.0 mph 19.0 mph 71 % 0.00 in 135 W/m2
17:39 60.4 °F 50.6 °F 30.00 in West 10.0 mph 20.0 mph 70 % 0.00 in 146 W/m2
17:44 60.4 °F 51.0 °F 30.00 in West 11.0 mph 20.0 mph 71 % 0.00 in 132 W/m2
17:50 60.3 °F 50.8 °F 30.00 in West 10.0 mph 15.0 mph 71 % 0.00 in 95 W/m2
17:55 60.1 °F 50.6 °F 30.00 in West 11.0 mph 20.0 mph 71 % 0.00 in 93 W/m2
18:00 60.1 °F 50.6 °F 30.00 in West 11.0 mph 20.0 mph 71 % 0.00 in 81 W/m2
18:05 59.7 °F 50.3 °F 30.00 in West 12.0 mph 23.0 mph 71 % 0.00 in 84 W/m2
18:10 59.7 °F 50.7 °F 30.00 in West 12.0 mph 23.0 mph 72 % 0.00 in 107 W/m2
18:15 59.5 °F 50.5 °F 30.00 in West 12.0 mph 22.0 mph 72 % 0.00 in 76 W/m2
18:20 59.5 °F 50.9 °F 30.00 in West 11.0 mph 18.0 mph 73 % 0.00 in 51 W/m2
18:25 59.4 °F 50.7 °F 30.00 in West 11.0 mph 20.0 mph 73 % 0.00 in 47 W/m2
18:30 59.4 °F 50.7 °F 30.00 in West 11.0 mph 20.0 mph 73 % 0.00 in 46 W/m2
18:35 59.2 °F 50.5 °F 30.01 in West 10.0 mph 19.0 mph 73 % 0.00 in 76 W/m2
18:40 59.4 °F 51.1 °F 30.00 in West 9.0 mph 16.0 mph 74 % 0.00 in 134 W/m2
18:45 59.4 °F 51.1 °F 30.00 in West 9.0 mph 15.0 mph 74 % 0.00 in 132 W/m2
18:50 59.5 °F 50.9 °F 30.01 in West 9.0 mph 15.0 mph 73 % 0.00 in 111 W/m2
18:55 59.5 °F 50.9 °F 30.01 in West 9.0 mph 15.0 mph 73 % 0.00 in 86 W/m2
19:00 59.5 °F 50.9 °F 30.01 in West 9.0 mph 18.0 mph 73 % 0.00 in 65 W/m2
19:05 59.5 °F 50.9 °F 30.01 in West 10.0 mph 18.0 mph 73 % 0.00 in 54 W/m2
19:10 59.5 °F 50.9 °F 30.01 in West 10.0 mph 16.0 mph 73 % 0.00 in 44 W/m2
19:15 59.4 °F 50.7 °F 30.01 in West 10.0 mph 16.0 mph 73 % 0.00 in 39 W/m2
19:20 59.4 °F 50.7 °F 30.01 in West 9.0 mph 16.0 mph 73 % 0.00 in 42 W/m2
19:25 59.2 °F 50.5 °F 30.01 in West 9.0 mph 18.0 mph 73 % 0.00 in 35 W/m2
19:30 59.2 °F 50.5 °F 30.02 in West 10.0 mph 18.0 mph 73 % 0.00 in 42 W/m2
19:35 59.2 °F 50.5 °F 30.02 in West 10.0 mph 16.0 mph 73 % 0.00 in 35 W/m2
19:40 59.0 °F 50.7 °F 30.02 in WNW 11.0 mph 22.0 mph 74 % 0.00 in 67 W/m2
19:50 58.6 °F 50.7 °F 30.02 in West 10.0 mph 18.0 mph 75 % 0.00 in 40 W/m2
19:55 58.5 °F 50.6 °F 30.02 in West 9.0 mph 18.0 mph 75 % 0.00 in 35 W/m2
20:00 58.5 °F 50.6 °F 30.02 in WNW 9.0 mph 18.0 mph 75 % 0.00 in 53 W/m2
20:05 58.3 °F 50.4 °F 30.02 in West 8.0 mph 14.0 mph 75 % 0.00 in 63 W/m2
20:10 58.3 °F 50.4 °F 30.02 in West 8.0 mph 14.0 mph 75 % 0.00 in 47 W/m2
20:15 58.3 °F 50.4 °F 30.02 in West 8.0 mph 18.0 mph 75 % 0.00 in 40 W/m2
20:20 58.3 °F 50.0 °F 30.02 in West 9.0 mph 20.0 mph 74 % 0.00 in 44 W/m2
20:25 58.5 °F 50.2 °F 30.02 in West 10.0 mph 20.0 mph 74 % 0.00 in 44 W/m2
20:36 58.5 °F 50.2 °F 30.01 in West 10.0 mph 20.0 mph 74 % 0.00 in 47 W/m2
20:41 58.6 °F 50.4 °F 30.01 in West 11.0 mph 19.0 mph 74 % 0.00 in 67 W/m2
20:46 58.6 °F 50.4 °F 30.02 in West 11.0 mph 19.0 mph 74 % 0.00 in 83 W/m2
20:51 58.8 °F 50.5 °F 30.02 in West 9.0 mph 19.0 mph 74 % 0.00 in 69 W/m2
20:56 58.8 °F 50.5 °F 30.02 in West 7.0 mph 14.0 mph 74 % 0.00 in 44 W/m2
21:01 58.8 °F 50.5 °F 30.02 in West 8.0 mph 14.0 mph 74 % 0.00 in 33 W/m2
21:06 58.8 °F 50.9 °F 30.02 in West 7.0 mph 14.0 mph 75 % 0.00 in 18 W/m2
21:11 58.6 °F 50.7 °F 30.03 in West 6.0 mph 14.0 mph 75 % 0.00 in 12 W/m2
21:16 58.6 °F 50.7 °F 30.03 in WNW 6.0 mph 14.0 mph 75 % 0.00 in 12 W/m2
21:21 58.5 °F 50.6 °F 30.03 in WNW 5.0 mph 9.0 mph 75 % 0.00 in 11 W/m2
21:26 58.5 °F 50.9 °F 30.03 in West 5.0 mph 10.0 mph 76 % 0.00 in 9 W/m2
21:31 58.3 °F 50.7 °F 30.03 in West 6.0 mph 12.0 mph 76 % 0.00 in 5 W/m2
21:36 58.3 °F 51.1 °F 30.03 in West 7.0 mph 15.0 mph 77 % 0.00 in 5 W/m2
21:41 58.3 °F 51.1 °F 30.03 in West 6.0 mph 15.0 mph 77 % 0.00 in 0 W/m2
21:46 57.9 °F 50.8 °F 30.03 in West 6.0 mph 11.0 mph 77 % 0.00 in 0 W/m2
21:51 57.9 °F 51.1 °F 30.03 in West 7.0 mph 12.0 mph 78 % 0.00 in 0 W/m2
21:56 57.7 °F 50.9 °F 30.03 in West 7.0 mph 12.0 mph 78 % 0.00 in 0 W/m2
22:01 57.7 °F 50.9 °F 30.03 in West 8.0 mph 16.0 mph 78 % 0.00 in 0 W/m2
22:06 57.6 °F 51.1 °F 30.03 in West 9.0 mph 16.0 mph 79 % 0.00 in 0 W/m2
22:11 57.6 °F 51.1 °F 30.03 in West 8.0 mph 13.0 mph 79 % 0.00 in 0 W/m2
22:16 57.6 °F 51.1 °F 30.03 in West 7.0 mph 12.0 mph 79 % 0.00 in 0 W/m2
22:21 57.4 °F 50.9 °F 30.03 in West 6.0 mph 10.0 mph 79 % 0.00 in 0 W/m2
22:26 57.2 °F 51.1 °F 30.03 in West 5.0 mph 9.0 mph 80 % 0.00 in 0 W/m2
22:31 57.0 °F 50.9 °F 30.03 in West 6.0 mph 13.0 mph 80 % 0.00 in 0 W/m2
22:36 57.0 °F 50.9 °F 30.03 in WNW 7.0 mph 13.0 mph 80 % 0.00 in 0 W/m2
22:41 56.8 °F 51.1 °F 30.03 in WNW 6.0 mph 11.0 mph 81 % 0.00 in 0 W/m2
22:43 56.8 °F 51.1 °F 30.03 in WNW 6.0 mph 11.0 mph 81 % 0.00 in 0 W/m2
22:47 56.8 °F 51.1 °F 30.03 in WNW 5.0 mph 8.0 mph 81 % 0.00 in 0 W/m2
22:52 56.7 °F 50.9 °F 30.03 in WNW 4.0 mph 7.0 mph 81 % 0.00 in 0 W/m2
22:57 56.5 °F 51.1 °F 30.03 in WNW 6.0 mph 14.0 mph 82 % 0.00 in 0 W/m2
23:02 56.5 °F 51.1 °F 30.03 in WNW 8.0 mph 14.0 mph 82 % 0.00 in 0 W/m2
23:07 56.5 °F 51.1 °F 30.03 in WNW 7.0 mph 14.0 mph 82 % 0.00 in 0 W/m2
23:12 56.3 °F 50.9 °F 30.03 in WNW 5.0 mph 11.0 mph 82 % 0.00 in 0 W/m2
23:17 56.3 °F 50.9 °F 30.03 in WNW 5.0 mph 11.0 mph 82 % 0.00 in 0 W/m2
23:22 56.3 °F 50.9 °F 30.03 in WNW 7.0 mph 12.0 mph 82 % 0.00 in 0 W/m2
23:27 56.3 °F 51.2 °F 30.03 in WNW 7.0 mph 15.0 mph 83 % 0.00 in 0 W/m2
23:32 56.3 °F 51.2 °F 30.03 in West 8.0 mph 15.0 mph 83 % 0.00 in 0 W/m2
23:37 56.3 °F 51.2 °F 30.03 in West 7.0 mph 12.0 mph 83 % 0.00 in 0 W/m2
23:42 56.3 °F 51.2 °F 30.03 in West 7.0 mph 11.0 mph 83 % 0.00 in 0 W/m2
23:47 56.1 °F 51.0 °F 30.03 in West 7.0 mph 11.0 mph 83 % 0.00 in 0 W/m2
23:52 56.1 °F 51.0 °F 30.03 in West 7.0 mph 10.0 mph 83 % 0.00 in 0 W/m2
23:58 56.1 °F 51.0 °F 30.04 in West 7.0 mph 11.0 mph 83 % 0.00 in 0 W/m2
Delerius-Weather
Compliments of Weather Underground - 2.25 mb

Data updates at regular intervals.